This demonstration page uses our WeatherBlox Daily Observations layout. Learn more.

Left ArrowRight Arrow

Hourly Observations for March 7, 2018

Temp ( °F °C ) Dew Point ( °F °C ) Humidity (%) Winds ( mph kmh ) Pressure ( in mb ) Visibility ( mi km ) Precip ( " mm )
12:59 am 00:59 Cloudy with Light Rain 46 7.8 44 6.7 93 93 ESE 9 15 29.72 1007 6 10 0.10 2.54
1:59 am 01:59 Cloudy with Light Rain 47 8.3 45 7.2 93 93 SE 7 11 29.69 1005 5 8 0.03 0.76
2:59 am 02:59 Cloudy 48 8.9 47 8.3 96 96 ESE 7 11 29.64 1004 7 11 0.00 0.03
3:59 am 03:59 Cloudy with Mist and Fog 47 8.3 45 7.2 93 93 NW 9 15 29.64 1004 4 6 0.00 0.03
4:59 am 04:59 Cloudy 45 7.2 43 6.1 93 93 NNW 12 19 29.62 1003 7 11 0.00 0.00
5:51 am 05:51 Cloudy with Mist and Fog 44 6.7 43 6.1 96 96 NW 12 19 29.62 1003 3 4 0.00 0.00
5:59 am 05:59 Cloudy with Mist and Fog 44 6.7 42 5.6 93 93 NW 12 19 29.63 1003 3 5 0.00 0.00
6:07 am 06:07 Cloudy with Mist and Fog 44 6.7 42 5.6 93 93 NNW 15 24 29.62 1003 3 4 0.00 0.00
6:15 am 06:15 Cloudy with Mist and Fog 44 6.7 42 5.6 93 93 NNW 15 24 29.62 1003 4 6 0.00 0.00
6:33 am 06:33 Cloudy 44 6.7 42 5.6 93 93 NNW 14 22 29.62 1003 10 16 0.00 0.00
6:59 am 06:59 Cloudy 44 6.7 41 5 89 89 NW 12 19 29.61 1003 10 16 0.00 0.00
7:59 am 07:59 Cloudy 43 6.1 41 5 93 93 NW 12 19 29.63 1003 8 13 0.00 0.00
8:47 am 08:47 Cloudy 44 6.7 41 5 89 89 WNW 10 17 29.65 1004 10 16 0.00 0.00
8:59 am 08:59 Cloudy 44 6.7 41 5 89 89 WNW 12 19 29.63 1003 10 16 0.00 0.00
9:59 am 09:59 Cloudy 43 6.1 40 4.4 89 89 W 14 22 29.63 1003 10 16 0.00 0.00
10:59 am 10:59 Cloudy 42 5.6 39 3.9 89 89 WNW 24 39 29.66 1004 7 11 0.00 0.00
11:55 am 11:55 Mostly Cloudy 45 7 39 4 81 81 WNW 21 33 29.68 1005 10 16 0.00 0.00
11:59 am 11:59 Mostly Cloudy 45 7.2 39 3.9 80 80 WNW 20 31 29.67 1005 10 16 0.00 0.00
12:32 pm 12:32 Mostly Cloudy 46 7.8 39 3.9 77 77 W 15 24 29.68 1005 10 16 0.00 0.00
12:59 pm 12:59 Mostly Cloudy 47 8.3 39 3.9 74 74 WNW 21 33 29.67 1005 10 16 0.00 0.00
1:36 pm 13:36 Partly Cloudy 48 8.9 39 3.9 71 71 W 18 30 29.68 1005 10 16 0.00 0.00
1:59 pm 13:59 Partly Cloudy 50 10 38 3.3 63 63 WNW 18 30 29.67 1005 10 16 0.00 0.00
2:59 pm 14:59 Mostly Sunny 53 11.7 37 2.8 55 55 WNW 20 31 29.67 1005 10 16 0.00 0.00
3:59 pm 15:59 Partly Cloudy 53 11.7 37 2.8 55 55 WNW 15 24 29.69 1005 10 16 0.00 0.00
4:59 pm 16:59 Partly Cloudy 53 11.7 36 2.2 52 52 WNW 12 19 29.70 1006 10 16 0.00 0.00
5:59 pm 17:59 Partly Cloudy 52 11.1 34 1.1 50 50 WNW 16 26 29.73 1007 10 16 0.00 0.00
6:59 pm 18:59 Mostly Cloudy 51 10.6 34 1.1 52 52 WNW 10 17 29.77 1008 10 16 0.00 0.00
7:59 pm 19:59 Mostly Cloudy 46 7.8 38 3.3 73 73 NNE 9 15 29.82 1010 10 16 0.00 0.00
8:59 pm 20:59 Mostly Cloudy 44 6.7 38 3.3 79 79 E 3 6 29.85 1011 10 16 0.00 0.00
9:59 pm 21:59 Mostly Cloudy 44 6.7 37 2.8 76 76 Calm 29.87 1012 10 16 0.00 0.00
10:59 pm 22:59 Mostly Cloudy 46 7.8 32 0 58 58 W 6 9 29.87 1012 10 16 0.00 0.00
11:59 pm 23:59 Mostly Cloudy 45 7.2 24 -4.4 44 44 NW 13 20 29.88 1012 10 16 0.00 0.00

Powered by AerisWeather